Location: Bennemühlen
(52.5740°N, 9.7135°E)
Time: 06:50:25
(UTC+00:00)

A-11 Canister half - Pass Details

Date: 18 February 2026
Orbit: 1512 x 1687 km, 47.2° (Epoch: 8 March)

Event Time Altitude Azimuth Distance (km) Brightness Sun altitude
Rises 20:27:05 0° 226° (SW) 4,934 11.8 -34.3°
Reaches altitude 10° 20:30:25 10° 221° (SW) 3,943 11.2 -34.7°
Enters shadow 20:35:58 33° 199° (SSW) 2,534 9.9 -35.4°
Maximum altitude 20:39:52 47° 152° (SSE) 2,115 - -35.9°
Drops below altitude 10° 20:49:06 10° 84° (E) 3,863 - -37.1°
Sets 20:52:19 0° 78° (ENE) 4,827 - -37.5°
